This demonstration page uses our WeatherBlox Daily Observations layout. Learn more.

Left ArrowRight Arrow

38.20091, -84.87328

Hourly Observations for July 20, 2021

Temp ( °F °C ) Dew Point ( °F °C ) Humidity (%) Winds ( mph kmh ) Pressure ( in mb ) Visibility ( mi km ) Precip ( " mm )
12:53 am 00:53 Clear 68 20 65 18.3 90 90 Calm 30.05 1018 10 16 0.00 0.00
1:53 am 01:53 Clear 67 19.4 64 17.8 91 91 Calm 30.04 1017 8 13 0.00 0.00
2:53 am 02:53 Clear 66 18.9 64 17.8 93 93 NNW 3 6 30.04 1017 8 13 0.00 0.00
3:53 am 03:53 Clear 66 18.9 63 17.2 90 90 N 5 7 30.02 1017 9 14 0.00 0.00
4:53 am 04:53 Clear 64 17.8 62 16.7 93 93 Calm 30.01 1016 7 11 0.00 0.00
5:53 am 05:53 Clear 65 18.3 63 17.2 93 93 Calm 30.02 1017 8 13 0.00 0.00
6:53 am 06:53 Sunny with Mist and Fog 63 17.2 62 16.7 97 97 Calm 30.03 1017 6 10 0.00 0.00
7:53 am 07:53 Sunny 67 19.4 64 17.8 91 91 Calm 30.04 1017 7 11 0.00 0.00
8:53 am 08:53 Sunny 71 21.7 65 18.3 81 81 NNE 3 6 30.04 1017 9 14 0.00 0.00
9:53 am 09:53 Sunny 76 24.4 66 18.9 72 72 NE 3 6 30.05 1018 10 16 0.00 0.00
10:53 am 10:53 Sunny 79 26.1 67 19.4 67 67 N 6 9 30.05 1018 10 16 0.00 0.00
11:53 am 11:53 Mostly Sunny 83 28.3 67 19.4 59 59 NE 7 11 30.05 1018 9 14 0.00 0.00
12:53 pm 12:53 Mostly Sunny 84 28.9 66 18.9 55 55 NNE 6 9 30.04 1017 9 14 0.00 0.00
1:53 pm 13:53 Mostly Cloudy 84 28.9 65 18.3 53 53 NNE 7 11 30.03 1017 8 13 0.00 0.00
2:53 pm 14:53 Mostly Cloudy with Haze 85 29.4 66 18.9 53 53 N 6 9 30.01 1016 6 10 0.00 0.00
3:53 pm 15:53 Hazy 87 30.6 67 19.4 51 51 VRB 5 7 29.99 1016 5 8 0.00 0.00
4:53 pm 16:53 Hazy 86 30 65 18.3 49 49 N 6 9 29.98 1015 6 10 0.00 0.00
5:53 pm 17:53 Hazy 86 30 66 18.9 51 51 N 6 9 29.97 1015 6 10 0.00 0.00
6:53 pm 18:53 Hazy 85 29.4 67 19.4 55 55 NNW 7 11 29.97 1015 6 10 0.00 0.00
7:53 pm 19:53 Hazy 82 27.8 69 20.6 65 65 NNW 5 7 29.97 1015 5 8 0.00 0.00
8:53 pm 20:53 Hazy 77 25 70 21.1 79 79 Calm 29.98 1015 4 6 0.00 0.00
9:53 pm 21:53 Hazy 75 23.9 70 21.1 84 84 NW 3 6 29.99 1016 5 8 0.00 0.00
10:53 pm 22:53 Clear with Mist and Fog 73 22.8 69 20.6 87 87 NW 3 6 30.01 1016 5 8 0.00 0.00
11:53 pm 23:53 Clear with Mist and Fog 73 22.8 69 20.6 87 87 NW 3 6 30.01 1016 5 8 0.00 0.00

Powered by AerisWeather